Flag for Germany Weather past 2 weeks in Porta Westfalica, North Rhine-Westphalia, Germany

Now
64 °F

Mild.


Feels Like: 64 °F
Forecast: 47 / 57 °F
Wind: 3 mph from North

Location: Bueckeburg

Current Time: May 24, 2015 at 5:56:49 PM

Latest Report: May 24, 2015 at 5:20 PM


Visibility: N/A

Pressure: 30.04 "Hg

Humidity: 52%

Dew point: 46 °F

Location of Porta WestfalicaLocation

Historic Weather in Porta Westfalica — Graph

°F

Porta Westfalica temperature yesterday

Maximum temperature yesterday: 64 °F (at 11:20 AM)
Minimum temperature yesterday: 48 °F (at 11:20 PM)
Average temperature yesterday: 57 °F

Past Weeks' High & Low Weather Summary

 TemperatureHumidityPressure
High77 °F (May 12, 12:20 PM)100% (May 24, 6:20 AM)30.33 "Hg (May 24, 6:20 AM)
Low37 °F (May 16, 5:20 AM)39% (May 10, 4:20 PM)29.59 "Hg (May 18, 8:20 PM)
Average55 °F65%30.06 "Hg
* Reported May 9 4:20 PM — May 24 4:20 PM, Porta Westfalica, Weather by CustomWeather, © 2015

Note: Actual official high and low records may vary slightly from our data, if they occured in-between our weather recording intervals... More about our weather records

Advertising

Porta Westfalica weather history for previous 24 hours

 ConditionsComfort  
Time TempWeatherWind HumidityBarometerVisibility
4:20 PM
Sun, May 24
64 °FMild.6 mph52%30.07 "HgN/A
3:20 PM64 °FMild.6 mph52%30.07 "HgN/A
2:20 PM64 °FMild.7 mph52%30.09 "HgN/A
1:20 PM63 °FMild.5 mph52%30.09 "HgN/A
12:20 PM61 °FRefreshingly cool.5 mph55%30.09 "HgN/A
11:20 AM59 °FRefreshingly cool.3 mph55%30.12 "HgN/A
10:20 AM55 °FCool.2 mph67%30.15 "HgN/A
9:20 AM52 °FCool.1 mph72%30.15 "HgN/A
8:20 AM50 °FCool.2 mph76%30.15 "HgN/A
7:20 AM45 °FQuite cool.1 mph87%30.15 "HgN/A
6:20 AM39 °FChilly.2 mph100%30.15 "HgN/A
5:20 AM39 °FChilly.2 mph93%30.15 "HgN/A
4:20 AM39 °FChilly.2 mph93%30.15 "HgN/A
3:20 AM41 °FQuite cool.No wind93%30.18 "HgN/A
2:20 AM41 °FQuite cool.2 mph93%30.18 "HgN/A
1:20 AM45 °FQuite cool.2 mph81%30.18 "HgN/A
12:20 AM46 °FCool.1 mph82%30.18 "HgN/A
11:20 PM
Sat, May 23
48 °FCool.3 mph76%30.18 "HgN/A
10:20 PM50 °FCool.2 mph71%30.18 "HgN/A
9:20 PM54 °FCool.8 mph67%30.15 "HgN/A
8:20 PM57 °FCool.7 mph63%30.12 "HgN/A
7:20 PM59 °FCool.3 mph63%30.12 "HgN/A
6:20 PM57 °FCool.5 mph72%30.15 "HgN/A
5:20 PM55 °FCool.6 mph82%30.15 "HgN/A
Weather by CustomWeather, © 2015

See weather overviewHow to use our weather pages